星链-5291 (STARLINK-5291 )

导读 | 星芒AI

STARLINK-5291 是 SpaceX Starlink 项目中的一颗低轨通信卫星,属于第二代 Starlink 卫星星座的一部分。该卫星旨在为全球用户提供高速、低延迟的互联网服务,尤其服务于网络基础设施薄弱的地区。它运行在约 550 公里的轨道高度,采用先进的推进系统和激光通信技术,以提升网络效率和卫星间通信能力。STARLINK-5291 的发射和运行有助于扩大 Starlink 的覆盖范围和网络性能。

基本信息
目录编号:
55273
目录名称:
STARLINK-5291
国际标识:
2023-010E
轨道中心:
EARTH
卫星名称:
星链-5291
卫星全名:
星链-5291 (STARLINK-5291 )
卫星状态:
在轨 (已飞行1067 天)
发射日期:
2023-01-19 UTC
国别 :
美国 (US)
星等 :
--
轨道信息
数据来源 国际轨道数据 AOE轨道数据
星历时间 2025-12-21T08:10:32+0800
11小时前
查看轨道信息
2025-12-21T12:00:00+0800
7小时前
查看轨道信息
半长轴 6950.209km 6950.17km
偏心率 0.0002171 0.0002273
轨道倾角 70.000° 70.002°
近地点辐角 243.039° 298.552°
升交点赤经 242.698° 242.293°
平近点角 117.055° 200.891°
近地点 570.563km 570.453km
远地点 573.581km 573.613km
周期 96.107分钟 96.107分钟
每日圈数 14.983251 14.983377
详细信息
固有亮度:
5
最大亮度:
2.5
卫星平台:
Starlink v1.5
覆盖范围:
全球
运营商:
太空探索技术公司
运营商所在国:
美国
制造商(研发单位):
太空探索技术公司
制造商所在国:
美国
使用方式:
暂无
卫星简介
星链(Starlink)计划是由太空探索技术公司(SpaceX)提出的一个巨型低轨卫星互联网星座项目,计划在2019年至2024年间在太空搭建由约1.2万颗卫星组成的“星链”网络,其中1584颗将部署在地球上空550千米处的近地轨道,并从2020年开始工作。该卫星仍在工作。
2D轨道图
3D轨道图
轨道高度分析图
轨道倾角分析图
轨道综合分析图
查看轨道综合分析图